Вернуться в каталог

MERIDIAN 10

АктивенВоенныеHEO
NORAD 52145·PAYLOAD·🇷🇺 Russia

Запущен Mar 22, 2022 с Plesetsk Cosmodrome

Loading…

Ближайшие Пролёты (ближайшие 24 часа)

TLE

СвежийSource: Space-Track

Эпоха: Sep 13, 2026, 16:48 UTC

1 52145U 22030A   26256.70005921  .00000122  00000-0  00000-0 0  9994
2 52145  62.6815 131.1872 6809425 272.8222  17.4901  2.00594494 32801

Отслеживайте MERIDIAN 10 в реальном времени с AllMySat

Download on the App Store